TimeEDT,TemperatureF,Dew PointF,Humidity,Sea Level PressureIn,VisibilityMPH,Wind Direction,Wind SpeedMPH,Gust SpeedMPH,PrecipitationIn,Events,Conditions,WindDirDegrees,DateUTC
12:15 AM,38.5,11.1,33,30.10,10.0,West,3.5,-,N/A,,Clear,280,2013-03-20 04:15:00
12:35 AM,38.1,11.3,33,30.10,10.0,West,4.6,-,N/A,,Clear,280,2013-03-20 04:35:00
12:55 AM,37.8,12.0,35,30.11,10.0,West,4.6,-,N/A,,Clear,280,2013-03-20 04:55:00
1:15 AM,37.4,12.2,36,30.10,10.0,West,4.6,-,N/A,,Clear,280,2013-03-20 05:15:00
1:35 AM,36.9,12.7,37,30.10,10.0,WNW,3.5,-,N/A,,Clear,290,2013-03-20 05:35:00
1:55 AM,36.5,13.1,38,30.11,10.0,West,4.6,-,N/A,,Clear,280,2013-03-20 05:55:00
2:15 AM,36.5,13.3,39,30.11,10.0,WNW,4.6,-,N/A,,Clear,290,2013-03-20 06:15:00
2:35 AM,35.6,13.8,41,30.11,10.0,West,3.5,-,N/A,,Clear,270,2013-03-20 06:35:00
2:55 AM,35.1,13.8,42,30.10,10.0,West,4.6,-,N/A,,Clear,270,2013-03-20 06:55:00
3:15 AM,34.3,13.8,43,30.10,10.0,West,4.6,-,N/A,,Clear,270,2013-03-20 07:15:00
3:35 AM,34.7,13.8,42,30.10,10.0,West,4.6,-,N/A,,Clear,270,2013-03-20 07:35:00
3:55 AM,33.8,14.0,44,30.09,10.0,West,3.5,-,N/A,,Clear,260,2013-03-20 07:55:00
4:15 AM,33.4,14.2,45,30.09,10.0,WSW,4.6,-,N/A,,Clear,250,2013-03-20 08:15:00
4:35 AM,33.4,14.0,45,30.08,10.0,West,3.5,-,N/A,,Clear,260,2013-03-20 08:35:00
4:55 AM,32.9,14.4,47,30.07,10.0,WSW,3.5,-,N/A,,Clear,250,2013-03-20 08:55:00
5:15 AM,32.9,14.0,46,30.07,10.0,Calm,Calm,-,N/A,,Clear,0,2013-03-20 09:15:00
5:35 AM,32.9,14.0,46,30.08,10.0,WSW,3.5,-,N/A,,Clear,240,2013-03-20 09:35:00
5:55 AM,32.2,14.7,49,30.07,10.0,WSW,4.6,-,N/A,,Clear,250,2013-03-20 09:55:00
6:15 AM,32.0,14.9,49,30.07,10.0,WSW,4.6,-,N/A,,Clear,240,2013-03-20 10:15:00
6:35 AM,32.5,14.4,47,30.07,10.0,SW,4.6,-,N/A,,Clear,230,2013-03-20 10:35:00
6:55 AM,32.5,14.0,46,30.07,10.0,SW,3.5,-,N/A,,Clear,220,2013-03-20 10:55:00
7:15 AM,32.4,14.0,47,30.07,10.0,SW,4.6,-,N/A,,Clear,220,2013-03-20 11:15:00
7:35 AM,32.0,14.0,48,30.07,10.0,SSW,4.6,-,N/A,,Clear,210,2013-03-20 11:35:00
7:55 AM,32.0,14.5,49,30.08,10.0,SSW,5.8,-,N/A,,Clear,200,2013-03-20 11:55:00
8:15 AM,32.0,15.4,51,30.08,10.0,SSW,3.5,-,N/A,,Clear,200,2013-03-20 12:15:00
8:35 AM,32.0,16.3,52,30.08,10.0,Calm,Calm,-,N/A,,Clear,0,2013-03-20 12:35:00
8:55 AM,33.4,16.3,50,30.08,10.0,SW,3.5,-,N/A,,Clear,220,2013-03-20 12:55:00
9:15 AM,34.3,16.5,48,30.08,10.0,SW,4.6,-,N/A,,Clear,220,2013-03-20 13:15:00
9:35 AM,36.7,17.4,46,30.08,10.0,SW,5.8,-,N/A,,Clear,220,2013-03-20 13:35:00
9:55 AM,37.6,18.0,45,30.07,10.0,SW,4.6,-,N/A,,Clear,230,2013-03-20 13:55:00
10:15 AM,39.0,18.7,44,30.07,10.0,SSW,8.1,-,N/A,,Clear,210,2013-03-20 14:15:00
10:35 AM,40.1,18.7,42,30.06,10.0,SSW,5.8,-,N/A,,Clear,210,2013-03-20 14:35:00
10:55 AM,41.5,17.6,38,30.05,10.0,West,9.2,17.3,N/A,,Clear,260,2013-03-20 14:55:00
11:15 AM,42.6,16.7,35,30.04,10.0,West,4.6,19.6,N/A,,Clear,280,2013-03-20 15:15:00
11:55 AM,44.2,14.5,30,30.02,10.0,WSW,11.5,18.4,N/A,,Clear,250,2013-03-20 15:55:00
12:15 PM,44.6,15.1,30,30.01,10.0,West,16.1,27.6,N/A,,Clear,260,2013-03-20 16:15:00
12:35 PM,46.4,16.7,31,30.00,10.0,West,20.7,26.5,N/A,,Clear,260,2013-03-20 16:35:00
12:55 PM,46.0,15.8,30,29.99,10.0,West,8.1,18.4,N/A,,Clear,270,2013-03-20 16:55:00
1:15 PM,47.7,16.0,28,29.98,10.0,West,10.4,20.7,N/A,,Clear,280,2013-03-20 17:15:00
1:35 PM,46.9,15.6,29,29.97,10.0,WNW,9.2,19.6,N/A,,Scattered Clouds,290,2013-03-20 17:35:00
1:55 PM,48.0,16.0,28,29.96,10.0,West,13.8,31.1,N/A,,Scattered Clouds,260,2013-03-20 17:55:00
2:15 PM,47.8,15.6,28,29.95,10.0,West,11.5,24.2,N/A,,Mostly Cloudy,260,2013-03-20 18:15:00
2:35 PM,48.0,15.8,28,29.93,10.0,West,12.7,21.9,N/A,,Mostly Cloudy,280,2013-03-20 18:35:00
2:55 PM,47.3,14.0,26,29.92,10.0,West,15.0,24.2,N/A,,Scattered Clouds,280,2013-03-20 18:55:00
3:15 PM,46.8,15.1,28,29.91,10.0,WNW,8.1,16.1,N/A,,Mostly Cloudy,290,2013-03-20 19:15:00
3:35 PM,47.7,16.3,29,29.90,10.0,West,13.8,25.3,N/A,,Mostly Cloudy,280,2013-03-20 19:35:00
3:55 PM,46.9,14.7,27,29.89,10.0,West,12.7,24.2,N/A,,Mostly Cloudy,270,2013-03-20 19:55:00
4:15 PM,46.8,14.5,27,29.87,10.0,West,13.8,29.9,N/A,,Overcast,280,2013-03-20 20:15:00
4:35 PM,46.6,15.6,29,29.86,10.0,West,9.2,21.9,N/A,,Overcast,280,2013-03-20 20:35:00
4:55 PM,46.4,15.8,29,29.85,10.0,West,11.5,20.7,N/A,,Overcast,270,2013-03-20 20:55:00
5:15 PM,47.3,16.7,30,29.84,10.0,WNW,13.8,20.7,N/A,,Overcast,300,2013-03-20 21:15:00
5:35 PM,46.6,17.6,32,29.83,10.0,West,10.4,19.6,N/A,,Overcast,260,2013-03-20 21:35:00
5:55 PM,45.9,16.7,31,29.83,10.0,West,11.5,16.1,N/A,,Overcast,260,2013-03-20 21:55:00
6:15 PM,45.7,17.6,33,29.83,10.0,West,6.9,21.9,N/A,,Overcast,260,2013-03-20 22:15:00
6:35 PM,44.8,18.5,35,29.84,10.0,West,12.7,19.6,N/A,,Overcast,280,2013-03-20 22:35:00
6:55 PM,40.3,25.0,54,29.86,10.0,WNW,12.7,24.2,N/A,,Overcast,290,2013-03-20 22:55:00
7:15 PM,40.3,22.1,48,29.88,10.0,WNW,16.1,23.0,N/A,,Overcast,290,2013-03-20 23:15:00
7:35 PM,39.2,22.8,52,29.90,10.0,WNW,10.4,24.2,N/A,,Overcast,300,2013-03-20 23:35:00
7:55 PM,37.0,26.4,65,29.90,10.0,WNW,9.2,19.6,N/A,Snow,Light Snow,290,2013-03-20 23:55:00
8:15 PM,36.1,26.8,69,29.90,7.0,West,4.6,18.4,N/A,Snow,Light Snow,270,2013-03-21 00:15:00
8:35 PM,36.5,26.2,66,29.91,10.0,West,6.9,-,N/A,,Overcast,280,2013-03-21 00:35:00
8:55 PM,36.7,21.7,55,29.90,10.0,NW,10.4,-,N/A,,Overcast,320,2013-03-21 00:55:00
9:15 PM,35.6,16.2,45,29.92,10.0,NW,11.5,18.4,N/A,,Overcast,310,2013-03-21 01:15:00
9:35 PM,34.9,15.4,45,29.92,10.0,West,15.0,25.3,N/A,,Overcast,280,2013-03-21 01:35:00
9:55 PM,34.7,14.4,43,29.92,10.0,WNW,6.9,19.6,N/A,,Overcast,300,2013-03-21 01:55:00
10:15 PM,33.8,13.8,44,29.93,10.0,NW,13.8,24.2,N/A,,Overcast,320,2013-03-21 02:15:00
10:35 PM,32.4,11.7,42,29.94,10.0,NW,11.5,23.0,N/A,,Overcast,320,2013-03-21 02:35:00
10:55 PM,32.0,11.1,42,29.94,10.0,NW,9.2,18.4,N/A,,Overcast,320,2013-03-21 02:55:00
11:15 PM,31.8,11.7,43,29.94,10.0,NW,4.6,-,N/A,,Overcast,320,2013-03-21 03:15:00
11:35 PM,31.5,12.0,45,29.94,10.0,WNW,4.6,-,N/A,,Overcast,300,2013-03-21 03:35:00
11:55 PM,30.2,11.1,45,29.94,10.0,WNW,11.5,17.3,N/A,,Overcast,290,2013-03-21 03:55:00